Year,Month,Day,Hour,Minute,Value (Times are PST for insolation in W/m^2)
2018,07,03,00,00,0.00
2018,07,03,00,01,0.00
2018,07,03,00,02,0.00
2018,07,03,00,03,0.00
2018,07,03,00,04,0.00
2018,07,03,00,05,0.00
2018,07,03,00,06,0.00
2018,07,03,00,07,0.00
2018,07,03,00,08,0.00
2018,07,03,00,09,0.00
2018,07,03,00,10,0.00
2018,07,03,00,11,0.00
2018,07,03,00,12,0.00
2018,07,03,00,13,0.00
2018,07,03,00,14,0.00
2018,07,03,00,15,0.00
2018,07,03,00,16,0.00
2018,07,03,00,17,0.00
2018,07,03,00,18,0.00
2018,07,03,00,19,0.00
2018,07,03,00,20,0.00
2018,07,03,00,21,0.00
2018,07,03,00,22,0.00
2018,07,03,00,23,0.00
2018,07,03,00,24,0.00
2018,07,03,00,25,0.00
2018,07,03,00,26,0.00
2018,07,03,00,27,0.00
2018,07,03,00,28,0.00
2018,07,03,00,29,0.00
2018,07,03,00,30,0.00
2018,07,03,00,31,0.00
2018,07,03,00,32,0.00
2018,07,03,00,33,0.00
2018,07,03,00,34,0.00
2018,07,03,00,35,0.00
2018,07,03,00,36,0.00
2018,07,03,00,37,0.00
2018,07,03,00,38,0.00
2018,07,03,00,39,0.00
2018,07,03,00,40,0.00
2018,07,03,00,41,0.00
2018,07,03,00,42,0.00
2018,07,03,00,43,0.00
2018,07,03,00,44,0.00
2018,07,03,00,45,0.00
2018,07,03,00,46,0.00
2018,07,03,00,47,0.00
2018,07,03,00,48,0.00
2018,07,03,00,49,0.00
2018,07,03,00,50,0.00
2018,07,03,00,51,0.00
2018,07,03,00,52,0.00
2018,07,03,00,53,0.00
2018,07,03,00,54,0.00
2018,07,03,00,55,0.00
2018,07,03,00,56,0.00
2018,07,03,00,57,0.00
2018,07,03,00,58,0.00
2018,07,03,00,59,0.00
2018,07,03,01,00,0.00
2018,07,03,01,01,0.00
2018,07,03,01,02,0.00
2018,07,03,01,03,0.00
2018,07,03,01,04,0.00
2018,07,03,01,05,0.00
2018,07,03,01,06,0.00
2018,07,03,01,07,0.00
2018,07,03,01,08,0.00
2018,07,03,01,09,0.00
2018,07,03,01,10,0.00
2018,07,03,01,11,0.00
2018,07,03,01,12,0.00
2018,07,03,01,13,0.00
2018,07,03,01,14,0.00
2018,07,03,01,15,0.00
2018,07,03,01,16,0.00
2018,07,03,01,17,0.00
2018,07,03,01,18,0.00
2018,07,03,01,19,0.00
2018,07,03,01,20,0.00
2018,07,03,01,21,0.00
2018,07,03,01,22,0.00
2018,07,03,01,23,0.00
2018,07,03,01,24,0.00
2018,07,03,01,25,0.00
2018,07,03,01,26,0.00
2018,07,03,01,27,0.00
2018,07,03,01,28,0.00
2018,07,03,01,29,0.00
2018,07,03,01,30,0.00
2018,07,03,01,31,0.00
2018,07,03,01,32,0.00
2018,07,03,01,33,0.00
2018,07,03,01,34,0.00
2018,07,03,01,35,0.00
2018,07,03,01,36,0.00
2018,07,03,01,37,0.00
2018,07,03,01,38,0.00
2018,07,03,01,39,0.00
2018,07,03,01,40,0.00
2018,07,03,01,41,0.00
2018,07,03,01,42,0.00
2018,07,03,01,43,0.00
2018,07,03,01,44,0.00
2018,07,03,01,45,0.00
2018,07,03,01,46,0.00
2018,07,03,01,47,0.00
2018,07,03,01,48,0.00
2018,07,03,01,49,0.00
2018,07,03,01,50,0.00
2018,07,03,01,51,0.00
2018,07,03,01,52,0.00
2018,07,03,01,53,0.00
2018,07,03,01,54,0.00
2018,07,03,01,55,0.00
2018,07,03,01,56,0.00
2018,07,03,01,57,0.00
2018,07,03,01,58,0.00
2018,07,03,01,59,0.00
2018,07,03,02,00,0.00
2018,07,03,02,01,0.00
2018,07,03,02,02,0.00
2018,07,03,02,03,0.00
2018,07,03,02,04,0.00
2018,07,03,02,05,0.00
2018,07,03,02,06,0.00
2018,07,03,02,07,0.00
2018,07,03,02,08,0.00
2018,07,03,02,09,0.00
2018,07,03,02,10,0.00
2018,07,03,02,11,0.00
2018,07,03,02,12,0.00
2018,07,03,02,13,0.00
2018,07,03,02,14,0.00
2018,07,03,02,15,0.00
2018,07,03,02,16,0.00
2018,07,03,02,17,0.00
2018,07,03,02,18,0.00
2018,07,03,02,19,0.00
2018,07,03,02,20,0.00
2018,07,03,02,21,0.00
2018,07,03,02,22,0.00
2018,07,03,02,23,0.00
2018,07,03,02,24,0.00
2018,07,03,02,25,0.00
2018,07,03,02,26,0.00
2018,07,03,02,27,0.00
2018,07,03,02,28,0.00
2018,07,03,02,29,0.00
2018,07,03,02,30,0.00
2018,07,03,02,31,0.00
2018,07,03,02,32,0.00
2018,07,03,02,33,0.00
2018,07,03,02,34,0.00
2018,07,03,02,35,0.00
2018,07,03,02,36,0.00
2018,07,03,02,37,0.00
2018,07,03,02,38,0.00
2018,07,03,02,39,0.00
2018,07,03,02,40,0.00
2018,07,03,02,41,0.00
2018,07,03,02,42,0.00
2018,07,03,02,43,0.00
2018,07,03,02,44,0.00
2018,07,03,02,45,0.00
2018,07,03,02,46,0.00
2018,07,03,02,47,0.00
2018,07,03,02,48,0.00
2018,07,03,02,49,0.00
2018,07,03,02,50,0.00
2018,07,03,02,51,0.00
2018,07,03,02,52,0.00
2018,07,03,02,53,0.00
2018,07,03,02,54,0.00
2018,07,03,02,55,0.00
2018,07,03,02,56,0.00
2018,07,03,02,57,0.00
2018,07,03,02,58,0.00
2018,07,03,02,59,0.00
2018,07,03,03,00,0.00
2018,07,03,03,01,0.00
2018,07,03,03,02,0.00
2018,07,03,03,03,0.00
2018,07,03,03,04,0.00
2018,07,03,03,05,0.00
2018,07,03,03,06,0.00
2018,07,03,03,07,0.00
2018,07,03,03,08,0.00
2018,07,03,03,09,0.00
2018,07,03,03,10,0.00
2018,07,03,03,11,0.00
2018,07,03,03,12,0.00
2018,07,03,03,13,0.00
2018,07,03,03,14,0.00
2018,07,03,03,15,0.00
2018,07,03,03,16,0.00
2018,07,03,03,17,0.00
2018,07,03,03,18,0.00
2018,07,03,03,19,0.00
2018,07,03,03,20,0.00
2018,07,03,03,21,0.00
2018,07,03,03,22,0.00
2018,07,03,03,23,0.00
2018,07,03,03,24,0.00
2018,07,03,03,25,0.00
2018,07,03,03,26,0.00
2018,07,03,03,27,0.00
2018,07,03,03,28,0.00
2018,07,03,03,29,0.00
2018,07,03,03,30,0.00
2018,07,03,03,31,0.00
2018,07,03,03,32,0.00
2018,07,03,03,33,0.00
2018,07,03,03,34,0.00
2018,07,03,03,35,0.00
2018,07,03,03,36,0.00
2018,07,03,03,37,0.00
2018,07,03,03,38,0.00
2018,07,03,03,39,0.00
2018,07,03,03,40,0.00
2018,07,03,03,41,0.00
2018,07,03,03,42,0.00
2018,07,03,03,43,0.00
2018,07,03,03,44,0.00
2018,07,03,03,45,0.00
2018,07,03,03,46,0.00
2018,07,03,03,47,0.00
2018,07,03,03,48,0.00
2018,07,03,03,49,0.00
2018,07,03,03,50,0.00
2018,07,03,03,51,0.00
2018,07,03,03,52,0.00
2018,07,03,03,53,0.00
2018,07,03,03,54,0.00
2018,07,03,03,55,0.00
2018,07,03,03,56,0.00
2018,07,03,03,57,0.00
2018,07,03,03,58,0.00
2018,07,03,03,59,0.00
2018,07,03,04,00,0.00
2018,07,03,04,01,0.00
2018,07,03,04,02,0.00
2018,07,03,04,03,0.00
2018,07,03,04,04,0.00
2018,07,03,04,05,0.00
2018,07,03,04,06,0.00
2018,07,03,04,07,0.00
2018,07,03,04,08,0.00
2018,07,03,04,09,0.00
2018,07,03,04,10,0.00
2018,07,03,04,11,0.00
2018,07,03,04,12,0.00
2018,07,03,04,13,0.00
2018,07,03,04,14,0.00
2018,07,03,04,15,0.00
2018,07,03,04,16,0.00
2018,07,03,04,17,0.00
2018,07,03,04,18,0.00
2018,07,03,04,19,0.00
2018,07,03,04,20,0.00
2018,07,03,04,21,0.00
2018,07,03,04,22,0.00
2018,07,03,04,23,0.00
2018,07,03,04,24,0.00
2018,07,03,04,25,0.00
2018,07,03,04,26,0.00
2018,07,03,04,27,0.00
2018,07,03,04,28,0.00
2018,07,03,04,29,0.00
2018,07,03,04,30,0.00
2018,07,03,04,31,0.00
2018,07,03,04,32,0.00
2018,07,03,04,33,0.00
2018,07,03,04,34,0.00
2018,07,03,04,35,0.00
2018,07,03,04,36,0.00
2018,07,03,04,37,0.00
2018,07,03,04,38,0.00
2018,07,03,04,39,0.00
2018,07,03,04,40,0.00
2018,07,03,04,41,0.00
2018,07,03,04,42,0.00
2018,07,03,04,43,0.00
2018,07,03,04,44,0.00
2018,07,03,04,45,0.00
2018,07,03,04,46,0.00
2018,07,03,04,47,0.00
2018,07,03,04,48,0.00
2018,07,03,04,49,0.00
2018,07,03,04,50,0.00
2018,07,03,04,51,0.00
2018,07,03,04,52,0.00
2018,07,03,04,53,0.00
2018,07,03,04,54,0.00
2018,07,03,04,55,0.00
2018,07,03,04,56,0.00
2018,07,03,04,57,0.00
2018,07,03,04,58,0.00
2018,07,03,04,59,0.00
2018,07,03,05,00,0.00
2018,07,03,05,01,0.00
2018,07,03,05,02,0.00
2018,07,03,05,03,0.00
2018,07,03,05,04,0.00
2018,07,03,05,05,0.00
2018,07,03,05,06,0.00
2018,07,03,05,07,0.00
2018,07,03,05,08,0.00
2018,07,03,05,09,0.00
2018,07,03,05,10,0.00
2018,07,03,05,11,0.00
2018,07,03,05,12,0.00
2018,07,03,05,13,0.00
2018,07,03,05,14,0.00
2018,07,03,05,15,0.00
2018,07,03,05,16,0.00
2018,07,03,05,17,0.00
2018,07,03,05,18,0.00
2018,07,03,05,19,0.00
2018,07,03,05,20,0.00
2018,07,03,05,21,1.00
2018,07,03,05,22,5.00
2018,07,03,05,23,5.00
2018,07,03,05,24,5.00
2018,07,03,05,25,5.00
2018,07,03,05,26,5.00
2018,07,03,05,27,5.00
2018,07,03,05,28,5.40
2018,07,03,05,29,7.00
2018,07,03,05,30,7.00
2018,07,03,05,31,7.00
2018,07,03,05,32,7.00
2018,07,03,05,33,7.00
2018,07,03,05,34,7.10
2018,07,03,05,35,9.00
2018,07,03,05,36,9.00
2018,07,03,05,37,9.00
2018,07,03,05,38,9.00
2018,07,03,05,39,9.00
2018,07,03,05,40,9.00
2018,07,03,05,41,9.10
2018,07,03,05,42,11.00
2018,07,03,05,43,11.00
2018,07,03,05,44,11.00
2018,07,03,05,45,11.00
2018,07,03,05,46,11.00
2018,07,03,05,47,11.00
2018,07,03,05,48,11.00
2018,07,03,05,49,11.20
2018,07,03,05,50,12.00
2018,07,03,05,51,12.00
2018,07,03,05,52,12.00
2018,07,03,05,53,12.00
2018,07,03,05,54,12.00
2018,07,03,05,55,12.00
2018,07,03,05,56,12.00
2018,07,03,05,57,12.60
2018,07,03,05,58,14.00
2018,07,03,05,59,14.00
2018,07,03,06,00,14.00
2018,07,03,06,01,14.00
2018,07,03,06,02,14.00
2018,07,03,06,03,14.00
2018,07,03,06,04,14.00
2018,07,03,06,05,14.00
2018,07,03,06,06,14.00
2018,07,03,06,07,14.00
2018,07,03,06,08,14.00
2018,07,03,06,09,14.00
2018,07,03,06,10,14.00
2018,07,03,06,11,14.00
2018,07,03,06,12,14.00
2018,07,03,06,13,14.00
2018,07,03,06,14,15.40
2018,07,03,06,15,14.40
2018,07,03,06,16,15.90
2018,07,03,06,17,16.00
2018,07,03,06,18,16.00
2018,07,03,06,19,16.00
2018,07,03,06,20,16.00
2018,07,03,06,21,16.00
2018,07,03,06,22,17.70
2018,07,03,06,23,18.00
2018,07,03,06,24,18.20
2018,07,03,06,25,19.00
2018,07,03,06,26,19.90
2018,07,03,06,27,21.00
2018,07,03,06,28,22.40
2018,07,03,06,29,23.00
2018,07,03,06,30,23.00
2018,07,03,06,31,23.40
2018,07,03,06,32,25.00
2018,07,03,06,33,25.00
2018,07,03,06,34,25.00
2018,07,03,06,35,25.00
2018,07,03,06,36,25.80
2018,07,03,06,37,26.00
2018,07,03,06,38,26.00
2018,07,03,06,39,26.00
2018,07,03,06,40,26.90
2018,07,03,06,41,28.00
2018,07,03,06,42,28.00
2018,07,03,06,43,28.00
2018,07,03,06,44,29.90
2018,07,03,06,45,30.00
2018,07,03,06,46,30.00
2018,07,03,06,47,30.00
2018,07,03,06,48,31.10
2018,07,03,06,49,32.00
2018,07,03,06,50,32.00
2018,07,03,06,51,32.90
2018,07,03,06,52,33.00
2018,07,03,06,53,33.00
2018,07,03,06,54,33.90
2018,07,03,06,55,36.10
2018,07,03,06,56,37.00
2018,07,03,06,57,37.00
2018,07,03,06,58,38.90
2018,07,03,06,59,39.20
2018,07,03,07,00,39.70
2018,07,03,07,01,39.00
2018,07,03,07,02,39.60
2018,07,03,07,03,47.60
2018,07,03,07,04,51.00
2018,07,03,07,05,44.10
2018,07,03,07,06,41.40
2018,07,03,07,07,39.30
2018,07,03,07,08,40.00
2018,07,03,07,09,41.10
2018,07,03,07,10,45.40
2018,07,03,07,11,75.10
2018,07,03,07,12,124.70
2018,07,03,07,13,109.70
2018,07,03,07,14,67.80
2018,07,03,07,15,72.40
2018,07,03,07,16,82.20
2018,07,03,07,17,73.10
2018,07,03,07,18,67.50
2018,07,03,07,19,106.80
2018,07,03,07,20,148.30
2018,07,03,07,21,162.60
2018,07,03,07,22,161.00
2018,07,03,07,23,161.10
2018,07,03,07,24,173.90
2018,07,03,07,25,213.30
2018,07,03,07,26,267.80
2018,07,03,07,27,274.00
2018,07,03,07,28,275.60
2018,07,03,07,29,278.60
2018,07,03,07,30,275.70
2018,07,03,07,31,280.20
2018,07,03,07,32,283.00
2018,07,03,07,33,280.00
2018,07,03,07,34,267.00
2018,07,03,07,35,278.20
2018,07,03,07,36,285.20
2018,07,03,07,37,283.90
2018,07,03,07,38,291.00
2018,07,03,07,39,292.50
2018,07,03,07,40,305.40
2018,07,03,07,41,309.60
2018,07,03,07,42,304.60
2018,07,03,07,43,299.70
2018,07,03,07,44,306.30
2018,07,03,07,45,314.60
2018,07,03,07,46,303.90
2018,07,03,07,47,301.50
2018,07,03,07,48,308.90
2018,07,03,07,49,311.40
2018,07,03,07,50,306.20
2018,07,03,07,51,292.90
2018,07,03,07,52,303.60
2018,07,03,07,53,265.00
2018,07,03,07,54,212.70
2018,07,03,07,55,251.00
2018,07,03,07,56,281.10
2018,07,03,07,57,295.20
2018,07,03,07,58,292.00
2018,07,03,07,59,255.40
2018,07,03,08,00,272.00
2018,07,03,08,01,304.00
2018,07,03,08,02,338.90
2018,07,03,08,03,313.50
2018,07,03,08,04,305.30
2018,07,03,08,05,304.80
2018,07,03,08,06,251.40
2018,07,03,08,07,273.50
2018,07,03,08,08,289.10
2018,07,03,08,09,322.20
2018,07,03,08,10,321.30
2018,07,03,08,11,327.00
2018,07,03,08,12,333.40
2018,07,03,08,13,310.70
2018,07,03,08,14,257.30
2018,07,03,08,15,237.60
2018,07,03,08,16,236.50
2018,07,03,08,17,243.10
2018,07,03,08,18,223.60
2018,07,03,08,19,201.10
2018,07,03,08,20,209.10
2018,07,03,08,21,214.00
2018,07,03,08,22,365.30
2018,07,03,08,23,378.20
2018,07,03,08,24,360.60
2018,07,03,08,25,378.60
2018,07,03,08,26,412.10
2018,07,03,08,27,433.00
2018,07,03,08,28,444.60
2018,07,03,08,29,448.20
2018,07,03,08,30,453.00
2018,07,03,08,31,456.00
2018,07,03,08,32,455.30
2018,07,03,08,33,457.00
2018,07,03,08,34,457.00
2018,07,03,08,35,464.40
2018,07,03,08,36,469.30
2018,07,03,08,37,473.40
2018,07,03,08,38,475.90
2018,07,03,08,39,478.90
2018,07,03,08,40,481.70
2018,07,03,08,41,483.00
2018,07,03,08,42,488.00
2018,07,03,08,43,490.10
2018,07,03,08,44,492.70
2018,07,03,08,45,496.30
2018,07,03,08,46,498.80
2018,07,03,08,47,502.20
2018,07,03,08,48,505.10
2018,07,03,08,49,506.00
2018,07,03,08,50,509.90
2018,07,03,08,51,513.40
2018,07,03,08,52,515.70
2018,07,03,08,53,518.30
2018,07,03,08,54,521.10
2018,07,03,08,55,523.40
2018,07,03,08,56,525.70
2018,07,03,08,57,529.00
2018,07,03,08,58,531.60
2018,07,03,08,59,534.70
2018,07,03,09,00,537.90
2018,07,03,09,01,540.60
2018,07,03,09,02,543.80
2018,07,03,09,03,547.50
2018,07,03,09,04,549.90
2018,07,03,09,05,550.70
2018,07,03,09,06,554.90
2018,07,03,09,07,557.00
2018,07,03,09,08,559.30
2018,07,03,09,09,562.40
2018,07,03,09,10,567.10
2018,07,03,09,11,568.20
2018,07,03,09,12,571.30
2018,07,03,09,13,574.20
2018,07,03,09,14,577.40
2018,07,03,09,15,579.20
2018,07,03,09,16,581.40
2018,07,03,09,17,584.50
2018,07,03,09,18,587.00
2018,07,03,09,19,589.60
2018,07,03,09,20,592.00
2018,07,03,09,21,592.90
2018,07,03,09,22,596.30
2018,07,03,09,23,598.70
2018,07,03,09,24,602.30
2018,07,03,09,25,605.80
2018,07,03,09,26,606.40
2018,07,03,09,27,609.40
2018,07,03,09,28,613.40
2018,07,03,09,29,616.20
2018,07,03,09,30,617.00
2018,07,03,09,31,621.10
2018,07,03,09,32,622.10
2018,07,03,09,33,624.40
2018,07,03,09,34,626.60
2018,07,03,09,35,629.30
2018,07,03,09,36,632.10
2018,07,03,09,37,634.40
2018,07,03,09,38,637.50
2018,07,03,09,39,636.50
2018,07,03,09,40,640.40
2018,07,03,09,41,642.30
2018,07,03,09,42,643.90
2018,07,03,09,43,646.10
2018,07,03,09,44,648.40
2018,07,03,09,45,651.50
2018,07,03,09,46,656.00
2018,07,03,09,47,656.80
2018,07,03,09,48,653.80
2018,07,03,09,49,650.30
2018,07,03,09,50,653.20
2018,07,03,09,51,655.40
2018,07,03,09,52,665.90
2018,07,03,09,53,671.20
2018,07,03,09,54,671.30
2018,07,03,09,55,648.70
2018,07,03,09,56,636.20
2018,07,03,09,57,646.60
2018,07,03,09,58,672.70
2018,07,03,09,59,677.90
2018,07,03,10,00,663.60
2018,07,03,10,01,665.90
2018,07,03,10,02,672.00
2018,07,03,10,03,655.70
2018,07,03,10,04,635.10
2018,07,03,10,05,636.60
2018,07,03,10,06,636.30
2018,07,03,10,07,648.90
2018,07,03,10,08,635.40
2018,07,03,10,09,625.90
2018,07,03,10,10,668.00
2018,07,03,10,11,685.70
2018,07,03,10,12,686.30
2018,07,03,10,13,704.20
2018,07,03,10,14,701.90
2018,07,03,10,15,693.10
2018,07,03,10,16,705.20
2018,07,03,10,17,711.80
2018,07,03,10,18,714.00
2018,07,03,10,19,699.50
2018,07,03,10,20,693.00
2018,07,03,10,21,718.40
2018,07,03,10,22,724.40
2018,07,03,10,23,727.00
2018,07,03,10,24,731.70
2018,07,03,10,25,736.10
2018,07,03,10,26,737.70
2018,07,03,10,27,741.30
2018,07,03,10,28,747.00
2018,07,03,10,29,749.40
2018,07,03,10,30,751.30
2018,07,03,10,31,752.00
2018,07,03,10,32,754.30
2018,07,03,10,33,756.00
2018,07,03,10,34,757.70
2018,07,03,10,35,758.50
2018,07,03,10,36,763.40
2018,07,03,10,37,765.30
2018,07,03,10,38,766.90
2018,07,03,10,39,768.00
2018,07,03,10,40,770.90
2018,07,03,10,41,770.30
2018,07,03,10,42,773.10
2018,07,03,10,43,775.40
2018,07,03,10,44,777.70
2018,07,03,10,45,780.40
2018,07,03,10,46,786.10
2018,07,03,10,47,785.40
2018,07,03,10,48,788.10
2018,07,03,10,49,791.10
2018,07,03,10,50,795.20
2018,07,03,10,51,796.60
2018,07,03,10,52,798.90
2018,07,03,10,53,800.00
2018,07,03,10,54,801.40
2018,07,03,10,55,804.50
2018,07,03,10,56,809.10
2018,07,03,10,57,812.00
2018,07,03,10,58,813.20
2018,07,03,10,59,816.40
2018,07,03,11,00,820.40
2018,07,03,11,01,823.00
2018,07,03,11,02,823.00
2018,07,03,11,03,827.80
2018,07,03,11,04,828.40
2018,07,03,11,05,827.80
2018,07,03,11,06,826.10
2018,07,03,11,07,835.90
2018,07,03,11,08,795.00
2018,07,03,11,09,823.30
2018,07,03,11,10,837.20
2018,07,03,11,11,840.70
2018,07,03,11,12,844.60
2018,07,03,11,13,846.40
2018,07,03,11,14,845.20
2018,07,03,11,15,854.00
2018,07,03,11,16,856.30
2018,07,03,11,17,860.90
2018,07,03,11,18,864.10
2018,07,03,11,19,860.00
2018,07,03,11,20,862.20
2018,07,03,11,21,866.80
2018,07,03,11,22,867.30
2018,07,03,11,23,872.80
2018,07,03,11,24,873.70
2018,07,03,11,25,869.40
2018,07,03,11,26,860.80
2018,07,03,11,27,847.90
2018,07,03,11,28,859.90
2018,07,03,11,29,877.70
2018,07,03,11,30,882.00
2018,07,03,11,31,862.10
2018,07,03,11,32,882.90
2018,07,03,11,33,898.00
2018,07,03,11,34,898.90
2018,07,03,11,35,900.00
2018,07,03,11,36,901.40
2018,07,03,11,37,903.70
2018,07,03,11,38,904.40
2018,07,03,11,39,900.00
2018,07,03,11,40,898.80
2018,07,03,11,41,896.00
2018,07,03,11,42,897.10
2018,07,03,11,43,899.40
2018,07,03,11,44,898.30
2018,07,03,11,45,894.90
2018,07,03,11,46,892.60
2018,07,03,11,47,892.60
2018,07,03,11,48,898.70
2018,07,03,11,49,896.90
2018,07,03,11,50,888.20
2018,07,03,11,51,881.90
2018,07,03,11,52,884.20
2018,07,03,11,53,886.10
2018,07,03,11,54,879.70
2018,07,03,11,55,870.30
2018,07,03,11,56,869.10
2018,07,03,11,57,879.90
2018,07,03,11,58,885.10
2018,07,03,11,59,879.60
2018,07,03,12,00,859.70
2018,07,03,12,01,877.70
2018,07,03,12,02,891.60
2018,07,03,12,03,892.70
2018,07,03,12,04,890.40
2018,07,03,12,05,896.80
2018,07,03,12,06,898.40
2018,07,03,12,07,904.20
2018,07,03,12,08,905.00
2018,07,03,12,09,905.00
2018,07,03,12,10,904.40
2018,07,03,12,11,902.60
2018,07,03,12,12,903.70
2018,07,03,12,13,904.00
2018,07,03,12,14,904.00
2018,07,03,12,15,904.30
2018,07,03,12,16,904.60
2018,07,03,12,17,905.70
2018,07,03,12,18,905.60
2018,07,03,12,19,904.20
2018,07,03,12,20,907.20
2018,07,03,12,21,910.20
2018,07,03,12,22,906.30
2018,07,03,12,23,906.90
2018,07,03,12,24,909.00
2018,07,03,12,25,909.00
2018,07,03,12,26,910.60
2018,07,03,12,27,906.00
2018,07,03,12,28,913.60
2018,07,03,12,29,912.00
2018,07,03,12,30,911.60
2018,07,03,12,31,909.90
2018,07,03,12,32,907.60
2018,07,03,12,33,907.00
2018,07,03,12,34,901.50
2018,07,03,12,35,893.60
2018,07,03,12,36,901.50
2018,07,03,12,37,912.90
2018,07,03,12,38,914.00
2018,07,03,12,39,916.80
2018,07,03,12,40,914.70
2018,07,03,12,41,917.40
2018,07,03,12,42,914.40
2018,07,03,12,43,917.00
2018,07,03,12,44,919.00
2018,07,03,12,45,918.40
2018,07,03,12,46,918.00
2018,07,03,12,47,918.80
2018,07,03,12,48,920.70
2018,07,03,12,49,919.00
2018,07,03,12,50,919.00
2018,07,03,12,51,919.90
2018,07,03,12,52,922.10
2018,07,03,12,53,923.00
2018,07,03,12,54,921.30
2018,07,03,12,55,921.00
2018,07,03,12,56,921.00
2018,07,03,12,57,920.30
2018,07,03,12,58,920.90
2018,07,03,12,59,923.00
2018,07,03,13,00,921.60
2018,07,03,13,01,921.00
2018,07,03,13,02,921.10
2018,07,03,13,03,923.00
2018,07,03,13,04,923.00
2018,07,03,13,05,923.90
2018,07,03,13,06,920.90
2018,07,03,13,07,920.10
2018,07,03,13,08,922.70
2018,07,03,13,09,923.20
2018,07,03,13,10,925.00
2018,07,03,13,11,925.00
2018,07,03,13,12,925.00
2018,07,03,13,13,922.70
2018,07,03,13,14,921.00
2018,07,03,13,15,922.70
2018,07,03,13,16,924.80
2018,07,03,13,17,923.60
2018,07,03,13,18,925.70
2018,07,03,13,19,925.00
2018,07,03,13,20,925.00
2018,07,03,13,21,922.20
2018,07,03,13,22,921.00
2018,07,03,13,23,923.10
2018,07,03,13,24,924.60
2018,07,03,13,25,923.70
2018,07,03,13,26,924.10
2018,07,03,13,27,923.00
2018,07,03,13,28,925.10
2018,07,03,13,29,923.50
2018,07,03,13,30,923.00
2018,07,03,13,31,922.60
2018,07,03,13,32,921.60
2018,07,03,13,33,922.10
2018,07,03,13,34,923.30
2018,07,03,13,35,918.80
2018,07,03,13,36,920.10
2018,07,03,13,37,921.10
2018,07,03,13,38,922.60
2018,07,03,13,39,921.00
2018,07,03,13,40,920.10
2018,07,03,13,41,920.20
2018,07,03,13,42,921.00
2018,07,03,13,43,921.00
2018,07,03,13,44,916.40
2018,07,03,13,45,919.00
2018,07,03,13,46,919.00
2018,07,03,13,47,919.00
2018,07,03,13,48,919.00
2018,07,03,13,49,919.00
2018,07,03,13,50,919.00
2018,07,03,13,51,918.10
2018,07,03,13,52,918.40
2018,07,03,13,53,916.70
2018,07,03,13,54,918.50
2018,07,03,13,55,917.20
2018,07,03,13,56,913.10
2018,07,03,13,57,915.30
2018,07,03,13,58,916.00
2018,07,03,13,59,915.10
2018,07,03,14,00,912.70
2018,07,03,14,01,913.10
2018,07,03,14,02,912.00
2018,07,03,14,03,912.00
2018,07,03,14,04,912.00
2018,07,03,14,05,907.50
2018,07,03,14,06,909.00
2018,07,03,14,07,909.00
2018,07,03,14,08,909.00
2018,07,03,14,09,907.80
2018,07,03,14,10,907.00
2018,07,03,14,11,907.00
2018,07,03,14,12,908.40
2018,07,03,14,13,904.00
2018,07,03,14,14,904.30
2018,07,03,14,15,904.60
2018,07,03,14,16,904.00
2018,07,03,14,17,904.00
2018,07,03,14,18,900.70
2018,07,03,14,19,900.00
2018,07,03,14,20,899.20
2018,07,03,14,21,895.70
2018,07,03,14,22,896.40
2018,07,03,14,23,898.00
2018,07,03,14,24,896.60
2018,07,03,14,25,895.20
2018,07,03,14,26,895.00
2018,07,03,14,27,894.60
2018,07,03,14,28,893.00
2018,07,03,14,29,891.10
2018,07,03,14,30,889.00
2018,07,03,14,31,889.00
2018,07,03,14,32,888.20
2018,07,03,14,33,884.30
2018,07,03,14,34,886.00
2018,07,03,14,35,885.30
2018,07,03,14,36,883.10
2018,07,03,14,37,880.30
2018,07,03,14,38,881.10
2018,07,03,14,39,877.90
2018,07,03,14,40,878.90
2018,07,03,14,41,879.00
2018,07,03,14,42,878.40
2018,07,03,14,43,877.00
2018,07,03,14,44,875.90
2018,07,03,14,45,875.00
2018,07,03,14,46,874.20
2018,07,03,14,47,873.90
2018,07,03,14,48,871.60
2018,07,03,14,49,870.00
2018,07,03,14,50,870.00
2018,07,03,14,51,868.80
2018,07,03,14,52,867.30
2018,07,03,14,53,867.00
2018,07,03,14,54,863.30
2018,07,03,14,55,863.00
2018,07,03,14,56,862.30
2018,07,03,14,57,859.70
2018,07,03,14,58,854.00
2018,07,03,14,59,852.40
2018,07,03,15,00,851.30
2018,07,03,15,01,851.10
2018,07,03,15,02,853.00
2018,07,03,15,03,848.50
2018,07,03,15,04,842.80
2018,07,03,15,05,846.60
2018,07,03,15,06,847.00
2018,07,03,15,07,848.60
2018,07,03,15,08,845.90
2018,07,03,15,09,842.00
2018,07,03,15,10,842.60
2018,07,03,15,11,842.20
2018,07,03,15,12,838.20
2018,07,03,15,13,837.00
2018,07,03,15,14,835.30
2018,07,03,15,15,835.00
2018,07,03,15,16,835.00
2018,07,03,15,17,833.40
2018,07,03,15,18,830.40
2018,07,03,15,19,830.40
2018,07,03,15,20,828.60
2018,07,03,15,21,828.00
2018,07,03,15,22,824.10
2018,07,03,15,23,822.60
2018,07,03,15,24,821.00
2018,07,03,15,25,819.10
2018,07,03,15,26,817.00
2018,07,03,15,27,817.00
2018,07,03,15,28,814.50
2018,07,03,15,29,813.90
2018,07,03,15,30,811.60
2018,07,03,15,31,810.00
2018,07,03,15,32,807.70
2018,07,03,15,33,807.30
2018,07,03,15,34,806.10
2018,07,03,15,35,802.40
2018,07,03,15,36,800.00
2018,07,03,15,37,798.40
2018,07,03,15,38,798.40
2018,07,03,15,39,795.00
2018,07,03,15,40,793.80
2018,07,03,15,41,793.00
2018,07,03,15,42,789.70
2018,07,03,15,43,788.00
2018,07,03,15,44,788.00
2018,07,03,15,45,787.40
2018,07,03,15,46,784.20
2018,07,03,15,47,780.20
2018,07,03,15,48,779.70
2018,07,03,15,49,777.50
2018,07,03,15,50,776.90
2018,07,03,15,51,774.40
2018,07,03,15,52,771.40
2018,07,03,15,53,769.10
2018,07,03,15,54,766.90
2018,07,03,15,55,765.30
2018,07,03,15,56,765.80
2018,07,03,15,57,763.10
2018,07,03,15,58,760.40
2018,07,03,15,59,757.30
2018,07,03,16,00,756.00
2018,07,03,16,01,753.70
2018,07,03,16,02,751.30
2018,07,03,16,03,747.70
2018,07,03,16,04,746.80
2018,07,03,16,05,745.00
2018,07,03,16,06,744.70
2018,07,03,16,07,742.10
2018,07,03,16,08,740.00
2018,07,03,16,09,736.40
2018,07,03,16,10,736.70
2018,07,03,16,11,731.00
2018,07,03,16,12,728.40
2018,07,03,16,13,726.70
2018,07,03,16,14,727.10
2018,07,03,16,15,724.80
2018,07,03,16,16,721.80
2018,07,03,16,17,723.60
2018,07,03,16,18,718.80
2018,07,03,16,19,715.00
2018,07,03,16,20,714.00
2018,07,03,16,21,711.10
2018,07,03,16,22,708.80
2018,07,03,16,23,708.00
2018,07,03,16,24,705.40
2018,07,03,16,25,701.10
2018,07,03,16,26,699.60
2018,07,03,16,27,698.00
2018,07,03,16,28,696.20
2018,07,03,16,29,692.20
2018,07,03,16,30,691.00
2018,07,03,16,31,689.30
2018,07,03,16,32,686.90
2018,07,03,16,33,684.00
2018,07,03,16,34,682.70
2018,07,03,16,35,680.00
2018,07,03,16,36,677.10
2018,07,03,16,37,673.60
2018,07,03,16,38,671.40
2018,07,03,16,39,669.90
2018,07,03,16,40,667.60
2018,07,03,16,41,665.00
2018,07,03,16,42,662.10
2018,07,03,16,43,659.80
2018,07,03,16,44,657.60
2018,07,03,16,45,652.70
2018,07,03,16,46,653.50
2018,07,03,16,47,649.80
2018,07,03,16,48,647.80
2018,07,03,16,49,645.00
2018,07,03,16,50,643.90
2018,07,03,16,51,642.30
2018,07,03,16,52,638.70
2018,07,03,16,53,636.00
2018,07,03,16,54,634.60
2018,07,03,16,55,632.40
2018,07,03,16,56,629.70
2018,07,03,16,57,625.70
2018,07,03,16,58,622.60
2018,07,03,16,59,622.00
2018,07,03,17,00,619.10
2018,07,03,17,01,617.80
2018,07,03,17,02,612.70
2018,07,03,17,03,612.40
2018,07,03,17,04,610.10
2018,07,03,17,05,606.60
2018,07,03,17,06,603.50
2018,07,03,17,07,602.70
2018,07,03,17,08,598.80